Date String (YYYY-MM-DD hh:mm:ss) UTC,Instrument flags,Ambient pressure (hPa),Sample flow (lpm),Bypass flow (lpm),Sample temperature (°C),Ambient temperature (°C),ASC tube jacket temperature (°C),LED temperature (°C),Box temperature (°C),Sample RH (%),Span deviation,Mass concentration (μg/m³),Mass concentration (μg/m³),Mass concentration (μg/m³)
DateTimeUTC,F1_M11,P_M11,Q1_M11,Q2_M11,T1_M11,T2_M11,T3_M11,T4_M11,T5_M11,U1_M11,ZSPAN_M11,X2_M11,X0_M11,X1_M11
2023-04-08 14:00:00,,0829.8,5.01,0.00,22.6,20.9,00.0,30.9,24.1,10.7,0000.0,0003.59,0009.83,0002.22
2023-04-08 14:01:00,,0829.8,5.01,0.00,22.6,20.9,00.0,30.9,24.1,10.6,0000.0,0003.60,0009.59,0002.21
2023-04-08 14:02:00,,0829.8,5.01,0.00,22.6,21.0,00.0,30.9,24.1,10.6,0000.0,0003.61,0009.56,0002.21
2023-04-08 14:03:00,,0829.7,5.00,0.00,22.6,21.0,00.0,30.9,24.1,10.6,0000.0,0003.63,0009.59,0002.22
2023-04-08 14:04:00,,0829.7,4.98,0.00,22.6,21.0,00.0,30.9,24.1,10.6,0000.0,0003.63,0009.63,0002.20
2023-04-08 14:05:00,,0829.8,5.01,0.00,22.6,21.0,00.0,30.9,24.1,10.6,0000.0,0003.61,0010.07,0002.19
2023-04-08 14:06:00,,0829.8,5.01,0.00,22.6,21.0,00.0,30.9,24.1,10.6,0000.0,0003.62,0009.81,0002.19
2023-04-08 14:07:00,,0829.8,5.00,0.00,22.6,21.0,00.0,30.9,24.1,10.6,0000.0,0003.65,0009.68,0002.20
2023-04-08 14:08:00,,0829.8,4.99,0.00,22.6,21.0,00.0,30.9,24.1,10.6,0000.0,0003.61,0009.52,0002.20
2023-04-08 14:09:00,,0829.8,5.00,0.00,22.6,21.0,00.0,30.8,24.2,10.6,0000.0,0003.60,0009.35,0002.19
2023-04-08 14:10:00,,0829.8,5.01,0.00,22.6,21.0,00.0,30.8,24.2,10.6,0000.0,0003.63,0008.72,0002.19
2023-04-08 14:11:00,,0829.8,5.00,0.00,22.6,21.0,00.0,30.8,24.2,10.6,0000.0,0003.66,0008.65,0002.19
2023-04-08 14:12:00,,0829.8,5.00,0.00,22.6,21.0,00.0,30.8,24.2,10.6,0000.0,0003.65,0008.48,0002.20
2023-04-08 14:13:00,,0829.8,4.99,0.00,22.6,21.0,00.0,30.8,24.1,10.7,0000.0,0003.64,0008.86,0002.19
2023-04-08 14:14:00,,0829.8,4.99,0.00,22.6,21.0,00.0,30.9,24.1,10.7,0000.0,0003.59,0008.88,0002.18
2023-04-08 14:15:00,,0829.8,5.00,0.00,22.6,21.0,00.0,30.8,24.1,10.7,0000.0,0003.57,0008.72,0002.20
2023-04-08 14:16:00,,0829.8,5.01,0.00,22.6,21.0,00.0,30.8,24.1,10.7,0000.0,0003.56,0008.15,0002.21
2023-04-08 14:17:00,,0829.8,5.00,0.00,22.6,21.0,00.0,30.8,24.1,10.7,0000.0,0003.54,0008.09,0002.21
2023-04-08 14:18:00,,0829.8,5.00,0.00,22.6,21.0,00.0,30.8,24.1,10.9,0000.0,0003.56,0008.41,0002.20
2023-04-08 14:19:00,,0829.8,5.00,0.00,22.6,21.0,00.0,30.8,24.1,12.4,0000.0,0003.62,0008.81,0002.21
2023-04-08 14:20:00,,0829.8,5.01,0.00,22.6,21.0,00.0,30.9,24.1,13.2,0000.0,0003.70,0009.30,0002.23
2023-04-08 14:21:00,,0829.8,4.98,0.00,22.6,21.0,00.0,30.9,24.1,12.1,0000.0,0003.77,0009.69,0002.26
2023-04-08 14:22:00,,0829.8,4.99,0.00,22.6,21.0,00.0,30.9,24.1,12.4,0000.0,0003.79,0010.13,0002.27
2023-04-08 14:23:00,,0829.9,5.00,0.00,22.6,21.0,00.0,30.8,24.1,12.8,0000.0,0003.83,0010.70,0002.27
2023-04-08 14:24:00,,0829.9,5.00,0.00,22.6,21.0,00.0,30.9,24.1,13.2,0000.0,0003.89,0010.81,0002.29
2023-04-08 14:25:00,,0829.8,5.01,0.00,22.6,21.0,00.0,30.9,24.1,12.8,0000.0,0003.90,0010.89,0002.31
2023-04-08 14:26:00,,0829.8,5.00,0.00,22.6,21.0,00.0,30.9,24.1,11.5,0000.0,0003.92,0011.48,0002.34
2023-04-08 14:27:00,,0829.8,5.01,0.00,22.6,20.9,00.0,30.9,24.1,11.7,0000.0,0003.93,0011.64,0002.35
2023-04-08 14:28:00,,0829.8,5.00,0.00,22.6,20.9,00.0,30.8,24.1,11.6,0000.0,0003.93,0011.92,0002.36
2023-04-08 14:29:00,,0829.8,4.98,0.00,22.6,20.9,00.0,30.9,24.1,11.1,0000.0,0003.93,0011.77,0002.37
2023-04-08 14:30:00,,0829.8,5.00,0.00,22.6,21.0,00.0,30.9,24.1,11.1,0000.0,0003.96,0011.73,0002.40
2023-04-08 14:31:00,,0829.8,5.00,0.00,22.6,21.0,00.0,30.8,24.1,11.4,0000.0,0003.91,0011.29,0002.41
2023-04-08 14:32:00,,0829.8,5.00,0.00,22.6,21.0,00.0,30.8,24.1,12.1,0000.0,0003.88,0011.13,0002.43
2023-04-08 14:33:00,,0829.9,5.00,0.00,22.6,21.0,00.0,30.8,24.1,13.8,0000.0,0003.83,0010.73,0002.42
2023-04-08 14:34:00,,0829.9,5.01,0.00,22.6,21.0,00.0,30.9,24.1,14.5,0000.0,0003.84,0010.69,0002.43
2023-04-08 14:35:00,,0830.0,4.98,0.00,22.6,21.0,00.0,30.9,24.2,14.6,0000.0,0003.76,0010.19,0002.43
2023-04-08 14:36:00,,0830.0,5.00,0.00,22.6,21.0,00.0,30.9,24.2,13.6,0000.0,0003.77,0010.05,0002.42
2023-04-08 14:37:00,,0829.9,5.00,0.00,22.6,21.0,00.0,30.9,24.2,13.0,0000.0,0003.78,0009.49,0002.39
2023-04-08 14:38:00,,0829.9,5.00,0.00,22.6,21.0,00.0,30.9,24.2,13.2,0000.0,0003.77,0009.39,0002.39
2023-04-08 14:39:00,,0829.9,5.00,0.00,22.6,21.0,00.0,30.9,24.2,13.1,0000.0,0003.82,0009.47,0002.37
2023-04-08 14:40:00,,0829.9,5.01,0.00,22.6,21.0,00.0,30.9,24.1,11.9,0000.0,0003.84,0009.52,0002.35
2023-04-08 14:41:00,,0829.9,5.01,0.00,22.6,21.0,00.0,30.9,24.1,11.2,0000.0,0003.82,0009.46,0002.34
2023-04-08 14:42:00,,0829.9,5.00,0.00,22.6,21.0,00.0,30.9,24.2,11.8,0000.0,0003.84,0009.81,0002.33
2023-04-08 14:43:00,,0829.9,5.00,0.00,22.6,21.1,00.0,30.9,24.2,12.7,0000.0,0003.82,0009.81,0002.31
2023-04-08 14:44:00,,0829.9,5.00,0.00,22.6,21.1,00.0,30.9,24.2,13.0,0000.0,0003.82,0009.78,0002.31
2023-04-08 14:45:00,,0829.9,4.99,0.00,22.6,21.1,00.0,30.9,24.2,12.8,0000.0,0003.81,0009.15,0002.32
2023-04-08 14:46:00,,0829.9,5.00,0.00,22.6,21.1,00.0,30.9,24.2,12.8,0000.0,0003.83,0009.12,0002.31
2023-04-08 14:47:00,,0829.9,5.00,0.00,22.6,21.1,00.0,30.9,24.2,12.5,0000.0,0003.88,0009.25,0002.32
2023-04-08 14:48:00,,0829.9,5.00,0.00,22.7,21.1,00.0,30.9,24.2,12.5,0000.0,0003.90,0009.42,0002.33
2023-04-08 14:49:00,,0829.9,5.01,0.00,22.7,21.1,00.0,30.9,24.2,13.1,0000.0,0003.88,0009.43,0002.32
2023-04-08 14:50:00,,0830.0,5.00,0.00,22.7,21.1,00.0,30.9,24.2,13.4,0000.0,0003.81,0009.26,0002.33
2023-04-08 14:51:00,,0829.9,4.99,0.00,22.7,21.2,00.0,30.9,24.2,14.1,0000.0,0003.78,0009.38,0002.35
2023-04-08 14:52:00,,0830.0,5.00,0.00,22.7,21.2,00.0,30.9,24.2,13.9,0000.0,0003.76,0009.38,0002.35
2023-04-08 14:53:00,,0830.0,5.00,0.00,22.7,21.2,00.0,30.9,24.3,13.8,0000.0,0003.73,0008.95,0002.34
2023-04-08 14:54:00,,0830.0,4.99,0.00,22.7,21.2,00.0,30.9,24.3,13.2,0000.0,0003.72,0009.19,0002.34
2023-04-08 14:55:00,,0829.9,5.01,0.00,22.7,21.2,00.0,30.9,24.3,12.9,0000.0,0003.73,0010.61,0002.34
2023-04-08 14:56:00,,0829.9,5.01,0.00,22.7,21.1,00.0,30.9,24.3,12.1,0000.0,0003.71,0010.81,0002.32
2023-04-08 14:57:00,,0829.9,4.99,0.00,22.7,21.1,00.0,30.9,24.3,12.3,0000.0,0003.76,0010.99,0002.32
2023-04-08 14:58:00,,0829.9,5.00,0.00,22.7,21.1,00.0,30.9,24.3,11.8,0000.0,0003.73,0011.00,0002.32
2023-04-08 14:59:00,,0829.9,5.00,0.00,22.7,21.1,00.0,31.0,24.3,12.1,0000.0,0003.71,0010.81,0002.31
